TimeEST,TemperatureF,Dew PointF,Humidity,Sea Level PressureIn,VisibilityMPH,Wind Direction,Wind SpeedMPH,Gust SpeedMPH,PrecipitationIn,Events,Conditions,WindDirDegrees,DateUTC
12:14 AM,26.6,23.0,86,29.58,7.0,West,31.1,39.1,N/A,,Overcast,270,2013-01-31 05:14:00
12:33 AM,24.8,23.0,93,29.60,8.0,West,25.3,39.1,N/A,,Overcast,280,2013-01-31 05:33:00
12:35 AM,24.8,21.2,86,29.60,8.0,West,26.5,39.1,N/A,,Overcast,280,2013-01-31 05:35:00
12:41 AM,24.8,21.2,86,29.60,9.0,West,26.5,39.1,N/A,,Overcast,280,2013-01-31 05:41:00
12:43 AM,24.8,21.2,86,29.60,9.0,West,29.9,39.1,N/A,,Overcast,280,2013-01-31 05:43:00
12:55 AM,24.8,20.5,84,29.61,10.0,West,26.5,39.1,0.01,,Overcast,280,2013-01-31 05:55:00
1:19 AM,24.8,19.4,80,29.62,9.0,West,27.6,36.8,N/A,Snow,Light Snow,280,2013-01-31 06:19:00
1:43 AM,23.0,19.4,86,29.64,5.0,West,27.6,40.3,N/A,Snow,Light Snow,270,2013-01-31 06:43:00
1:55 AM,23.0,19.8,87,29.65,6.0,West,27.6,39.1,0.00,Snow,Light Snow,280,2013-01-31 06:55:00
1:56 AM,23.0,19.4,86,29.65,7.0,West,26.5,39.1,N/A,Snow,Light Snow,280,2013-01-31 06:56:00
1:57 AM,23.0,19.4,86,29.65,7.0,West,25.3,39.1,N/A,Snow,Light Snow,280,2013-01-31 06:57:00
2:00 AM,23.0,19.4,86,29.65,8.0,West,29.9,34.5,N/A,Snow,Light Snow,280,2013-01-31 07:00:00
2:25 AM,23.0,17.6,80,29.67,10.0,West,26.5,38.0,N/A,,Overcast,280,2013-01-31 07:25:00
2:32 AM,21.2,17.6,86,29.67,10.0,West,25.3,40.3,N/A,,Overcast,270,2013-01-31 07:32:00
2:49 AM,21.2,17.6,86,29.68,10.0,West,23.0,38.0,N/A,Snow,Light Snow,280,2013-01-31 07:49:00
2:55 AM,22.1,17.8,83,29.69,10.0,West,18.4,34.5,0.02,Snow,Light Snow,280,2013-01-31 07:55:00
3:02 AM,23.0,17.6,80,29.69,9.0,West,25.3,31.1,N/A,Snow,Light Snow,270,2013-01-31 08:02:00
3:08 AM,23.0,17.6,80,29.69,10.0,West,25.3,31.1,N/A,Snow,Light Snow,270,2013-01-31 08:08:00
3:14 AM,23.0,17.6,80,29.69,10.0,West,21.9,38.0,N/A,,Overcast,270,2013-01-31 08:14:00
3:15 AM,23.0,17.6,80,29.69,10.0,West,23.0,38.0,N/A,Rain,Light Freezing Rain,270,2013-01-31 08:15:00
3:27 AM,23.0,19.4,86,29.70,6.0,West,28.8,34.5,N/A,Snow,Light Snow,270,2013-01-31 08:27:00
3:30 AM,23.0,17.6,80,29.70,5.0,West,27.6,34.5,N/A,Snow,Light Snow,270,2013-01-31 08:30:00
3:35 AM,23.0,17.6,80,29.70,4.0,West,26.5,34.5,N/A,Snow,Light Snow,280,2013-01-31 08:35:00
3:45 AM,21.2,19.4,93,29.70,4.0,West,26.5,38.0,N/A,Snow,Light Snow,270,2013-01-31 08:45:00
3:46 AM,21.2,19.4,93,29.70,5.0,West,25.3,38.0,N/A,Snow,Light Snow,270,2013-01-31 08:46:00
3:55 AM,21.9,17.4,83,29.70,10.0,West,24.2,34.5,0.00,Snow,Light Snow,280,2013-01-31 08:55:00
4:08 AM,21.2,17.6,86,29.70,5.0,West,25.3,33.4,N/A,Snow,Light Snow,270,2013-01-31 09:08:00
4:09 AM,21.2,17.6,86,29.71,4.0,West,24.2,32.2,N/A,Snow,Light Snow,280,2013-01-31 09:09:00
4:11 AM,21.2,19.4,93,29.70,2.5,West,26.5,32.2,N/A,Snow,Light Snow,280,2013-01-31 09:11:00
4:14 AM,21.2,19.4,93,29.71,2.0,West,25.3,32.2,N/A,Snow,Light Snow,280,2013-01-31 09:14:00
4:15 AM,21.2,19.4,93,29.71,2.0,West,24.2,32.2,N/A,Snow,Light Snow,280,2013-01-31 09:15:00
4:19 AM,21.2,17.6,86,29.71,2.0,West,29.9,35.7,N/A,Snow,Light Snow,280,2013-01-31 09:19:00
4:21 AM,21.2,17.6,86,29.71,3.0,West,28.8,36.8,N/A,Snow,Light Snow,270,2013-01-31 09:21:00
4:25 AM,21.2,15.8,80,29.71,5.0,West,29.9,40.3,N/A,Snow,Light Snow,280,2013-01-31 09:25:00
4:31 AM,21.2,15.8,80,29.71,10.0,West,31.1,40.3,N/A,Rain,Light Freezing Rain,270,2013-01-31 09:31:00
4:53 AM,19.4,15.8,86,29.73,4.0,West,25.3,33.4,N/A,Snow,Light Snow,280,2013-01-31 09:53:00
4:55 AM,20.1,16.0,84,29.74,2.5,West,26.5,33.4,0.02,Snow,Light Snow,280,2013-01-31 09:55:00
4:57 AM,19.4,15.8,86,29.74,2.0,West,28.8,36.8,N/A,Snow,Light Snow,280,2013-01-31 09:57:00
5:04 AM,19.4,12.2,74,29.74,3.0,West,28.8,38.0,N/A,Snow,Light Snow,280,2013-01-31 10:04:00
5:06 AM,19.4,12.2,74,29.74,6.0,West,29.9,38.0,N/A,Snow,Light Snow,280,2013-01-31 10:06:00
5:15 AM,17.6,14.0,86,29.75,8.0,WNW,20.7,34.5,N/A,Snow,Light Snow,290,2013-01-31 10:15:00
5:18 AM,17.6,14.0,86,29.75,5.0,WNW,24.2,34.5,N/A,Snow,Light Snow,290,2013-01-31 10:18:00
5:19 AM,17.6,14.0,86,29.75,5.0,WNW,25.3,34.5,N/A,Snow,Light Snow,290,2013-01-31 10:19:00
5:22 AM,17.6,14.0,86,29.75,4.0,West,20.7,32.2,N/A,Snow,Light Snow,280,2013-01-31 10:22:00
5:36 AM,17.6,14.0,86,29.75,5.0,West,19.6,26.5,N/A,Snow,Light Snow,280,2013-01-31 10:36:00
5:55 AM,18.9,14.4,83,29.75,5.0,West,25.3,28.8,0.00,Snow,Light Snow,270,2013-01-31 10:55:00
5:56 AM,19.4,14.0,80,29.75,4.0,West,24.2,28.8,N/A,Snow,Light Snow,270,2013-01-31 10:56:00
5:57 AM,19.4,14.0,80,29.75,4.0,West,25.3,32.2,N/A,Snow,Light Snow,270,2013-01-31 10:57:00
6:05 AM,19.4,14.0,80,29.76,4.0,West,24.2,33.4,N/A,Snow,Light Snow,280,2013-01-31 11:05:00
6:07 AM,19.4,14.0,80,29.75,5.0,West,25.3,33.4,N/A,Snow,Light Snow,270,2013-01-31 11:07:00
6:55 AM,18.0,13.1,81,29.78,5.0,West,25.3,34.5,0.00,Snow,Light Snow,270,2013-01-31 11:55:00
7:55 AM,18.1,13.5,82,29.81,10.0,West,18.4,-,0.00,Snow,Light Snow,280,2013-01-31 12:55:00
8:38 AM,19.4,15.8,86,29.82,3.0,West,17.3,-,N/A,Snow,Light Snow,270,2013-01-31 13:38:00
8:55 AM,20.1,16.9,87,29.83,5.0,West,19.6,-,0.00,Snow,Light Snow,270,2013-01-31 13:55:00
9:55 AM,22.3,18.5,85,29.84,5.0,West,17.3,-,0.00,Snow,Light Snow,280,2013-01-31 14:55:00
10:10 AM,23.0,17.6,80,29.84,7.0,West,21.9,28.8,N/A,Snow,Light Snow,280,2013-01-31 15:10:00
10:33 AM,23.0,17.6,80,29.84,10.0,West,16.1,27.6,N/A,Snow,Light Snow,280,2013-01-31 15:33:00
10:55 AM,23.4,18.0,80,29.86,1.5,West,23.0,29.9,0.00,Snow,Snow,280,2013-01-31 15:55:00
10:57 AM,23.0,17.6,80,29.86,5.0,West,21.9,-,N/A,Snow,Light Snow,280,2013-01-31 15:57:00
11:15 AM,23.0,17.6,80,29.87,10.0,West,20.7,33.4,N/A,,Overcast,280,2013-01-31 16:15:00
11:18 AM,23.0,17.6,80,29.87,10.0,West,24.2,31.1,N/A,Snow,Light Snow,270,2013-01-31 16:18:00
11:55 AM,22.8,15.8,74,29.88,10.0,West,26.5,35.7,0.00,,Mostly Cloudy,280,2013-01-31 16:55:00
12:55 PM,22.8,13.8,68,29.88,10.0,West,27.6,40.3,N/A,,Overcast,260,2013-01-31 17:55:00
1:55 PM,22.8,14.0,69,29.89,10.0,West,29.9,39.1,0.00,,Overcast,270,2013-01-31 18:55:00
2:33 PM,23.0,14.0,68,29.89,10.0,West,23.0,34.5,N/A,,Overcast,280,2013-01-31 19:33:00
2:37 PM,23.0,14.0,68,29.89,10.0,WNW,24.2,34.5,N/A,,Overcast,290,2013-01-31 19:37:00
2:46 PM,23.0,14.0,68,29.89,10.0,West,24.2,33.4,N/A,,Overcast,280,2013-01-31 19:46:00
2:55 PM,21.9,12.7,68,29.90,10.0,WNW,25.3,34.5,N/A,,Overcast,290,2013-01-31 19:55:00
3:45 PM,21.2,14.0,74,29.90,10.0,West,21.9,29.9,N/A,Snow,Light Snow,280,2013-01-31 20:45:00
3:55 PM,21.0,14.0,74,29.91,10.0,WNW,18.4,-,0.00,Snow,Light Snow,290,2013-01-31 20:55:00
4:55 PM,20.1,15.6,83,29.91,1.5,WNW,18.4,-,0.00,Snow,Light Snow,300,2013-01-31 21:55:00
5:55 PM,17.8,10.9,75,29.95,10.0,West,23.0,27.6,0.00,Snow,Light Snow,270,2013-01-31 22:55:00
5:59 PM,17.6,10.4,73,29.95,10.0,West,25.3,31.1,N/A,,Overcast,280,2013-01-31 22:59:00
6:05 PM,17.6,10.4,73,29.95,10.0,West,25.3,31.1,N/A,,Overcast,280,2013-01-31 23:05:00
6:26 PM,17.6,10.4,73,29.97,10.0,WNW,23.0,-,N/A,Snow,Light Snow,290,2013-01-31 23:26:00
6:32 PM,17.6,12.2,79,29.97,4.0,WNW,20.7,27.6,N/A,Snow,Light Snow,290,2013-01-31 23:32:00
6:39 PM,15.8,12.2,86,29.98,2.0,West,21.9,29.9,N/A,Snow,Light Snow,280,2013-01-31 23:39:00
6:43 PM,15.8,10.4,79,29.98,2.5,West,23.0,29.9,N/A,Snow,Light Snow,280,2013-01-31 23:43:00
6:44 PM,15.8,10.4,79,29.98,3.0,West,23.0,29.9,N/A,Snow,Light Snow,280,2013-01-31 23:44:00
6:55 PM,16.0,10.8,80,29.98,5.0,West,23.0,-,0.00,Snow,Light Snow,280,2013-01-31 23:55:00
6:56 PM,15.8,10.4,79,29.99,4.0,West,20.7,27.6,N/A,Snow,Light Snow,280,2013-01-31 23:56:00
6:59 PM,15.8,12.2,86,29.99,2.5,WNW,26.5,33.4,N/A,Snow,Light Snow,290,2013-01-31 23:59:00
7:05 PM,15.8,10.4,79,29.99,3.0,West,21.9,33.4,N/A,Snow,Light Snow,280,2013-02-01 00:05:00
7:08 PM,15.8,10.4,79,30.00,5.0,West,16.1,33.4,N/A,Snow,Light Snow,280,2013-02-01 00:08:00
7:55 PM,15.8,6.8,68,30.01,10.0,West,23.0,31.1,N/A,,Mostly Cloudy,280,2013-02-01 00:55:00
7:57 PM,14.0,6.8,73,30.01,10.0,West,23.0,31.1,N/A,,Mostly Cloudy,280,2013-02-01 00:57:00
8:23 PM,14.0,6.8,73,30.02,10.0,WNW,20.7,31.1,N/A,Snow,Light Snow,290,2013-02-01 01:23:00
8:44 PM,14.0,10.4,86,30.02,4.0,WNW,25.3,31.1,N/A,Snow,Light Snow,290,2013-02-01 01:44:00
8:55 PM,14.0,8.6,79,30.03,4.0,WNW,20.7,31.1,N/A,Snow,Light Snow,290,2013-02-01 01:55:00
9:05 PM,14.0,6.8,73,30.03,10.0,WNW,23.0,31.1,N/A,,Overcast,290,2013-02-01 02:05:00
9:23 PM,12.2,5.0,73,30.03,10.0,WNW,25.3,34.5,N/A,,Mostly Cloudy,290,2013-02-01 02:23:00
9:31 PM,12.2,5.0,73,30.04,10.0,WNW,23.0,31.1,N/A,Snow,Light Snow,290,2013-02-01 02:31:00
9:43 PM,12.2,6.8,79,30.04,10.0,WNW,24.2,29.9,N/A,,Mostly Cloudy,290,2013-02-01 02:43:00
9:55 PM,12.4,5.2,73,30.05,10.0,WNW,19.6,-,0.00,,Overcast,300,2013-02-01 02:55:00
9:57 PM,12.2,5.0,73,30.05,10.0,WNW,21.9,-,N/A,Snow,Light Snow,290,2013-02-01 02:57:00
10:15 PM,12.2,6.8,79,30.06,6.0,WNW,21.9,35.7,N/A,Snow,Light Snow,290,2013-02-01 03:15:00
10:17 PM,12.2,6.8,79,30.06,4.0,WNW,21.9,35.7,N/A,Snow,Light Snow,300,2013-02-01 03:17:00
10:20 PM,12.2,8.6,85,30.06,3.0,NW,21.9,35.7,N/A,Snow,Light Snow,310,2013-02-01 03:20:00
10:21 PM,12.2,8.6,85,30.07,3.0,WNW,21.9,34.5,N/A,Snow,Light Snow,300,2013-02-01 03:21:00
10:31 PM,10.4,3.2,73,30.07,5.0,NW,21.9,32.2,N/A,Snow,Light Snow,310,2013-02-01 03:31:00
10:55 PM,10.6,5.5,80,30.08,9.0,WNW,21.9,31.1,0.00,Snow,Light Snow,300,2013-02-01 03:55:00
11:02 PM,10.4,3.2,73,30.09,10.0,WNW,24.2,32.2,N/A,Snow,Light Snow,300,2013-02-01 04:02:00
11:03 PM,10.4,3.2,73,30.09,10.0,WNW,24.2,32.2,N/A,,Scattered Clouds,300,2013-02-01 04:03:00
11:08 PM,10.4,3.2,73,30.09,10.0,NW,23.0,29.9,N/A,,Freezing Rain,310,2013-02-01 04:08:00
11:18 PM,8.6,5.0,85,30.10,10.0,NW,19.6,29.9,N/A,,Partly Cloudy,310,2013-02-01 04:18:00
11:30 PM,8.6,3.2,79,30.10,10.0,WNW,21.9,26.5,N/A,,Freezing Rain,290,2013-02-01 04:30:00
11:42 PM,8.6,3.2,79,30.11,10.0,WNW,21.9,33.4,N/A,,Mostly Cloudy,300,2013-02-01 04:42:00
11:53 PM,8.6,1.4,73,30.11,9.0,WNW,20.7,33.4,N/A,,Mostly Cloudy,290,2013-02-01 04:53:00
11:55 PM,9.0,2.8,76,30.12,8.0,WNW,20.7,33.4,0.00,Snow,Light Snow,300,2013-02-01 04:55:00